Time,TemperatureF,DewpointF,PressureIn,WindDirection,WindDirectionDegrees,WindSpeedMPH,WindSpeedGustMPH,Humidity,HourlyPrecipIn,Conditions,Clouds,dailyrainin,SoftwareType,DateUTC
2013-02-06 00:00:00,60.7,57.1,30.07,WSW,245,0.0,0.0,88,0.00,,,0.00,Wunderground v.1.15,2013-02-06 05:00:00,
2013-02-06 00:01:00,60.7,57.1,30.07,WSW,245,0.0,0.0,88,0.00,,,0.00,Wunderground v.1.15,2013-02-06 05:01:00,
2013-02-06 00:03:00,60.7,57.1,30.07,WSW,245,0.0,0.0,88,0.00,,,0.00,Wunderground v.1.15,2013-02-06 05:03:00,
2013-02-06 00:05:00,60.7,57.1,30.07,WSW,245,0.0,0.0,88,0.00,,,0.00,Wunderground v.1.15,2013-02-06 05:05:00,
2013-02-06 00:10:00,60.8,57.5,30.07,WSW,245,0.0,0.0,89,0.00,,,0.00,Wunderground v.1.15,2013-02-06 05:10:00,
2013-02-06 00:15:00,60.9,57.6,30.07,WSW,245,0.0,0.0,89,0.00,,,0.00,Wunderground v.1.15,2013-02-06 05:15:00,
2013-02-06 00:20:00,60.9,57.6,30.07,WSW,245,0.0,0.0,89,0.00,,,0.00,Wunderground v.1.15,2013-02-06 05:20:00,
2013-02-06 00:25:00,60.9,57.9,30.06,WSW,245,0.0,0.0,90,0.00,,,0.00,Wunderground v.1.15,2013-02-06 05:25:00,
2013-02-06 00:30:00,60.9,57.6,30.06,WSW,243,0.0,0.0,89,0.00,,,0.00,Wunderground v.1.15,2013-02-06 05:30:00,
2013-02-06 00:35:00,60.9,57.9,30.07,WSW,243,0.0,0.0,90,0.00,,,0.00,Wunderground v.1.15,2013-02-06 05:35:00,
2013-02-06 00:41:00,60.8,57.5,30.06,WSW,243,0.0,0.0,89,0.00,,,0.00,Wunderground v.1.15,2013-02-06 05:41:00,
2013-02-06 00:46:00,60.7,57.4,30.06,WSW,243,0.0,0.0,89,0.00,,,0.00,Wunderground v.1.15,2013-02-06 05:46:00,
2013-02-06 00:51:00,60.7,57.4,30.06,WSW,243,0.0,0.0,89,0.00,,,0.00,Wunderground v.1.15,2013-02-06 05:51:00,
2013-02-06 00:57:00,60.7,57.4,30.06,WSW,243,0.0,0.0,89,0.00,,,0.00,Wunderground v.1.15,2013-02-06 05:57:00,
2013-02-06 01:02:00,60.8,57.8,30.06,WSW,243,0.0,0.0,90,0.00,,,0.00,Wunderground v.1.15,2013-02-06 06:02:00,
2013-02-06 01:07:00,60.9,57.6,30.06,WSW,243,0.0,0.0,89,0.00,,,0.00,Wunderground v.1.15,2013-02-06 06:07:00,
2013-02-06 01:12:00,60.9,57.6,30.06,WSW,243,0.0,0.0,89,0.00,,,0.00,Wunderground v.1.15,2013-02-06 06:12:00,
2013-02-06 01:17:00,60.9,57.6,30.06,WSW,243,0.0,0.0,89,0.00,,,0.00,Wunderground v.1.15,2013-02-06 06:17:00,
2013-02-06 01:23:00,61.1,58.1,30.06,WSW,243,0.0,0.0,90,0.00,,,0.00,Wunderground v.1.15,2013-02-06 06:23:00,
2013-02-06 01:28:00,61.1,57.8,30.06,WSW,243,0.0,0.0,89,0.00,,,0.00,Wunderground v.1.15,2013-02-06 06:28:00,
2013-02-06 01:33:00,61.1,57.8,30.06,WSW,243,0.0,0.0,89,0.00,,,0.00,Wunderground v.1.15,2013-02-06 06:33:00,
2013-02-06 01:38:00,61.0,57.7,30.06,WSW,243,0.0,0.0,89,0.00,,,0.00,Wunderground v.1.15,2013-02-06 06:38:00,
2013-02-06 01:43:00,60.9,57.6,30.06,WSW,243,0.0,0.0,89,0.00,,,0.00,Wunderground v.1.15,2013-02-06 06:43:00,
2013-02-06 01:48:00,60.8,57.5,30.06,WSW,243,0.0,0.0,89,0.00,,,0.00,Wunderground v.1.15,2013-02-06 06:48:00,
2013-02-06 01:53:00,60.9,57.6,30.06,WSW,243,0.0,0.0,89,0.00,,,0.00,Wunderground v.1.15,2013-02-06 06:53:00,
2013-02-06 01:58:00,61.0,57.7,30.06,WSW,243,0.0,0.0,89,0.00,,,0.00,Wunderground v.1.15,2013-02-06 06:58:00,
2013-02-06 02:03:00,61.0,57.7,30.06,WSW,243,0.0,0.0,89,0.00,,,0.00,Wunderground v.1.15,2013-02-06 07:03:00,
2013-02-06 02:08:00,61.0,57.7,30.06,WSW,243,0.0,0.0,89,0.00,,,0.00,Wunderground v.1.15,2013-02-06 07:08:00,
2013-02-06 02:14:00,61.0,57.7,30.06,WSW,243,0.0,0.0,89,0.00,,,0.00,Wunderground v.1.15,2013-02-06 07:14:00,
2013-02-06 02:19:00,60.9,57.6,30.06,WSW,243,0.0,0.0,89,0.00,,,0.00,Wunderground v.1.15,2013-02-06 07:19:00,
2013-02-06 02:24:00,60.9,57.6,30.06,WSW,243,0.0,0.0,89,0.00,,,0.00,Wunderground v.1.15,2013-02-06 07:24:00,
2013-02-06 02:29:00,60.9,57.6,30.06,WSW,243,0.0,0.0,89,0.00,,,0.00,Wunderground v.1.15,2013-02-06 07:29:00,
2013-02-06 02:34:00,60.9,57.6,30.06,WSW,243,0.0,0.0,89,0.00,,,0.00,Wunderground v.1.15,2013-02-06 07:34:00,
2013-02-06 02:39:00,61.0,57.7,30.06,WSW,243,0.0,0.0,89,0.00,,,0.00,Wunderground v.1.15,2013-02-06 07:39:00,
2013-02-06 02:44:00,61.0,57.7,30.05,WSW,243,0.0,0.0,89,0.00,,,0.00,Wunderground v.1.15,2013-02-06 07:44:00,
2013-02-06 02:49:00,61.2,58.2,30.05,WSW,243,0.0,0.0,90,0.00,,,0.00,Wunderground v.1.15,2013-02-06 07:49:00,
2013-02-06 02:54:00,61.3,58.0,30.05,WSW,243,0.0,0.0,89,0.00,,,0.00,Wunderground v.1.15,2013-02-06 07:54:00,
2013-02-06 02:59:00,61.3,58.0,30.05,WSW,243,0.0,0.0,89,0.00,,,0.00,Wunderground v.1.15,2013-02-06 07:59:00,
2013-02-06 03:04:00,61.2,57.9,30.05,WSW,243,0.0,0.0,89,0.00,,,0.00,Wunderground v.1.15,2013-02-06 08:04:00,
2013-02-06 03:09:00,61.2,57.9,30.05,WSW,243,0.0,0.0,89,0.00,,,0.00,Wunderground v.1.15,2013-02-06 08:09:00,
2013-02-06 03:15:00,61.1,57.8,30.05,WSW,243,0.0,0.0,89,0.00,,,0.00,Wunderground v.1.15,2013-02-06 08:15:00,
2013-02-06 03:20:00,61.0,58.0,30.05,WSW,243,0.0,0.0,90,0.00,,,0.00,Wunderground v.1.15,2013-02-06 08:20:00,
2013-02-06 03:25:00,60.9,57.9,30.05,WSW,243,0.0,0.0,90,0.00,,,0.00,Wunderground v.1.15,2013-02-06 08:25:00,
2013-02-06 03:30:00,60.9,57.9,30.05,WSW,243,0.0,0.0,90,0.00,,,0.00,Wunderground v.1.15,2013-02-06 08:30:00,
2013-02-06 03:35:00,60.7,57.7,30.05,WSW,243,0.0,0.0,90,0.00,,,0.00,Wunderground v.1.15,2013-02-06 08:35:00,
2013-02-06 03:40:00,60.7,57.7,30.06,WSW,243,0.0,0.0,90,0.00,,,0.00,Wunderground v.1.15,2013-02-06 08:40:00,
2013-02-06 03:45:00,60.7,57.7,30.05,WSW,243,0.0,0.0,90,0.00,,,0.00,Wunderground v.1.15,2013-02-06 08:45:00,
2013-02-06 03:50:00,60.7,57.7,30.05,WSW,243,0.0,0.0,90,0.00,,,0.00,Wunderground v.1.15,2013-02-06 08:50:00,
2013-02-06 03:55:00,60.7,57.7,30.05,WSW,243,0.0,0.0,90,0.00,,,0.00,Wunderground v.1.15,2013-02-06 08:55:00,
2013-02-06 04:00:00,60.6,57.7,30.06,WSW,243,0.0,0.0,90,0.00,,,0.00,Wunderground v.1.15,2013-02-06 09:00:00,
2013-02-06 04:06:00,60.5,57.6,30.05,WSW,243,0.0,0.0,90,0.00,,,0.00,Wunderground v.1.15,2013-02-06 09:06:00,
2013-02-06 04:12:00,60.5,57.6,30.05,WSW,243,0.0,0.0,90,0.00,,,0.00,Wunderground v.1.15,2013-02-06 09:12:00,
2013-02-06 04:17:00,60.5,57.6,30.05,WSW,243,0.0,0.0,90,0.00,,,0.00,Wunderground v.1.15,2013-02-06 09:17:00,
2013-02-06 04:22:00,60.6,57.7,30.05,WSW,243,0.0,0.0,90,0.00,,,0.00,Wunderground v.1.15,2013-02-06 09:22:00,
2013-02-06 04:27:00,60.6,57.7,30.05,WSW,243,0.0,0.0,90,0.00,,,0.00,Wunderground v.1.15,2013-02-06 09:27:00,
2013-02-06 04:32:00,60.6,57.7,30.06,WSW,243,0.0,0.0,90,0.00,,,0.00,Wunderground v.1.15,2013-02-06 09:32:00,
2013-02-06 04:37:00,60.5,57.6,30.05,WSW,243,0.0,0.0,90,0.00,,,0.00,Wunderground v.1.15,2013-02-06 09:37:00,
2013-02-06 04:42:00,60.5,57.6,30.05,WSW,243,0.0,0.0,90,0.00,,,0.00,Wunderground v.1.15,2013-02-06 09:42:00,
2013-02-06 04:47:00,60.5,57.6,30.05,WSW,243,0.0,0.0,90,0.00,,,0.00,Wunderground v.1.15,2013-02-06 09:47:00,
2013-02-06 04:52:00,60.5,57.6,30.05,WSW,243,0.0,0.0,90,0.00,,,0.00,Wunderground v.1.15,2013-02-06 09:52:00,
2013-02-06 04:58:00,60.4,57.5,30.05,WSW,243,0.0,0.0,90,0.00,,,0.00,Wunderground v.1.15,2013-02-06 09:58:00,
2013-02-06 05:03:00,60.3,57.4,30.06,WSW,243,0.0,0.0,90,0.00,,,0.00,Wunderground v.1.15,2013-02-06 10:03:00,
2013-02-06 05:08:00,60.3,57.4,30.06,WSW,243,0.0,0.0,90,0.00,,,0.00,Wunderground v.1.15,2013-02-06 10:08:00,
2013-02-06 05:13:00,60.4,57.5,30.06,WSW,243,0.0,0.0,90,0.00,,,0.00,Wunderground v.1.15,2013-02-06 10:13:00,
2013-02-06 05:18:00,60.5,57.6,30.06,WSW,243,0.0,0.0,90,0.00,,,0.00,Wunderground v.1.15,2013-02-06 10:18:00,
2013-02-06 05:23:00,60.6,57.3,30.06,WSW,243,0.0,0.0,89,0.00,,,0.00,Wunderground v.1.15,2013-02-06 10:23:00,
2013-02-06 05:29:00,60.6,57.3,30.06,WSW,243,0.0,0.0,89,0.00,,,0.00,Wunderground v.1.15,2013-02-06 10:29:00,
2013-02-06 05:34:00,60.7,57.4,30.06,WSW,243,0.0,0.0,89,0.00,,,0.00,Wunderground v.1.15,2013-02-06 10:34:00,
2013-02-06 05:39:00,60.8,57.2,30.06,WSW,243,0.0,0.0,88,0.00,,,0.00,Wunderground v.1.15,2013-02-06 10:39:00,
2013-02-06 05:45:00,61.0,57.4,30.06,SW,229,0.0,0.0,88,0.00,,,0.00,Wunderground v.1.15,2013-02-06 10:45:00,
2013-02-06 05:50:00,61.1,57.2,30.07,SW,229,0.0,0.0,87,0.00,,,0.00,Wunderground v.1.15,2013-02-06 10:50:00,
2013-02-06 05:55:00,61.1,57.2,30.07,SE,131,0.0,1.0,87,0.00,,,0.00,Wunderground v.1.15,2013-02-06 10:55:00,
2013-02-06 06:00:00,61.2,57.3,30.07,SE,131,0.0,0.0,87,0.00,,,0.00,Wunderground v.1.15,2013-02-06 11:00:00,
2013-02-06 06:06:00,61.3,57.4,30.07,SE,131,0.0,0.0,87,0.00,,,0.00,Wunderground v.1.15,2013-02-06 11:06:00,
2013-02-06 06:11:00,61.3,57.4,30.07,SE,131,0.0,0.0,87,0.00,,,0.00,Wunderground v.1.15,2013-02-06 11:11:00,
2013-02-06 06:16:00,61.3,57.4,30.08,SE,131,0.0,0.0,87,0.00,,,0.00,Wunderground v.1.15,2013-02-06 11:16:00,
2013-02-06 06:21:00,61.4,57.2,30.08,SE,135,0.0,0.0,86,0.00,,,0.00,Wunderground v.1.15,2013-02-06 11:21:00,
2013-02-06 06:26:00,61.4,57.2,30.08,SE,136,0.0,1.0,86,0.00,,,0.00,Wunderground v.1.15,2013-02-06 11:26:00,
2013-02-06 06:31:00,61.5,57.3,30.08,SE,136,0.0,1.0,86,0.00,,,0.00,Wunderground v.1.15,2013-02-06 11:31:00,
2013-02-06 06:36:00,61.6,57.4,30.08,SE,137,0.0,1.0,86,0.00,,,0.00,Wunderground v.1.15,2013-02-06 11:36:00,
2013-02-06 06:41:00,61.6,57.0,30.08,SE,138,0.0,0.0,85,0.00,,,0.00,Wunderground v.1.15,2013-02-06 11:41:00,
2013-02-06 06:46:00,61.4,56.8,30.08,SE,136,0.0,0.0,85,0.00,,,0.00,Wunderground v.1.15,2013-02-06 11:46:00,
2013-02-06 06:51:00,61.4,56.8,30.07,SE,136,0.0,0.0,85,0.00,,,0.00,Wunderground v.1.15,2013-02-06 11:51:00,
2013-02-06 06:56:00,61.4,56.8,30.08,SE,139,0.0,0.0,85,0.00,,,0.00,Wunderground v.1.15,2013-02-06 11:56:00,
2013-02-06 07:02:00,61.6,57.0,30.08,SE,146,0.0,0.0,85,0.00,,,0.00,Wunderground v.1.15,2013-02-06 12:02:00,
2013-02-06 07:07:00,61.7,56.8,30.09,SE,146,0.0,0.0,84,0.00,,,0.00,Wunderground v.1.15,2013-02-06 12:07:00,
2013-02-06 07:12:00,61.8,56.9,30.09,SE,145,0.0,1.0,84,0.00,,,0.00,Wunderground v.1.15,2013-02-06 12:12:00,
2013-02-06 07:17:00,61.9,56.7,30.09,SE,139,0.0,1.0,83,0.00,,,0.00,Wunderground v.1.15,2013-02-06 12:17:00,
2013-02-06 07:22:00,62.2,56.6,30.09,SE,139,0.0,0.0,82,0.00,,,0.00,Wunderground v.1.15,2013-02-06 12:22:00,
2013-02-06 07:27:00,62.4,56.5,30.09,SE,134,0.0,1.0,81,0.00,,,0.00,Wunderground v.1.15,2013-02-06 12:27:00,
2013-02-06 07:33:00,62.6,56.3,30.09,SE,126,0.0,1.0,80,0.00,,,0.00,Wunderground v.1.15,2013-02-06 12:33:00,
2013-02-06 07:38:00,62.9,56.3,30.09,SE,146,0.0,2.0,79,0.00,,,0.00,Wunderground v.1.15,2013-02-06 12:38:00,
2013-02-06 07:43:00,63.1,56.5,30.09,SSE,151,1.0,1.0,79,0.00,,,0.00,Wunderground v.1.15,2013-02-06 12:43:00,
2013-02-06 07:48:00,63.2,56.2,30.09,SSE,151,1.0,2.0,78,0.00,,,0.00,Wunderground v.1.15,2013-02-06 12:48:00,
2013-02-06 07:53:00,63.2,56.2,30.09,SE,129,1.0,2.0,78,0.00,,,0.00,Wunderground v.1.15,2013-02-06 12:53:00,
2013-02-06 07:58:00,63.3,56.0,30.09,SE,146,0.0,2.0,77,0.00,,,0.00,Wunderground v.1.15,2013-02-06 12:58:00,
2013-02-06 08:03:00,63.4,56.1,30.10,SE,134,0.0,0.0,77,0.00,,,0.00,Wunderground v.1.15,2013-02-06 13:03:00,
2013-02-06 08:08:00,63.5,56.2,30.10,SE,142,0.0,0.0,77,0.00,,,0.00,Wunderground v.1.15,2013-02-06 13:08:00,
2013-02-06 08:13:00,63.5,56.2,30.10,SE,135,0.0,3.0,77,0.00,,,0.00,Wunderground v.1.15,2013-02-06 13:13:00,
2013-02-06 08:18:00,63.6,56.3,30.10,SSE,150,0.0,3.0,77,0.00,,,0.00,Wunderground v.1.15,2013-02-06 13:18:00,
2013-02-06 08:23:00,63.8,56.4,30.11,SE,134,0.0,0.0,77,0.00,,,0.00,Wunderground v.1.15,2013-02-06 13:23:00,
2013-02-06 08:28:00,63.9,56.2,30.10,SE,130,0.0,1.0,76,0.00,,,0.00,Wunderground v.1.15,2013-02-06 13:28:00,
2013-02-06 08:34:00,64.1,56.7,30.10,SSE,152,0.0,2.0,77,0.00,,,0.00,Wunderground v.1.15,2013-02-06 13:34:00,
2013-02-06 08:39:00,64.2,56.8,30.11,SSE,156,1.0,2.0,77,0.00,,,0.00,Wunderground v.1.15,2013-02-06 13:39:00,
2013-02-06 08:45:00,64.4,57.0,30.11,ENE,63,1.0,2.0,77,0.00,,,0.00,Wunderground v.1.15,2013-02-06 13:45:00,
2013-02-06 08:50:00,64.6,56.9,30.12,SE,131,1.0,1.0,76,0.00,,,0.00,Wunderground v.1.15,2013-02-06 13:50:00,
2013-02-06 08:55:00,64.7,57.3,30.12,SE,146,1.0,2.0,77,0.00,,,0.00,Wunderground v.1.15,2013-02-06 13:55:00,
2013-02-06 09:00:00,64.9,57.2,30.12,SE,133,1.0,1.0,76,0.00,,,0.00,Wunderground v.1.15,2013-02-06 14:00:00,
2013-02-06 09:06:00,65.1,57.3,30.12,SSE,160,1.0,2.0,76,0.00,,,0.00,Wunderground v.1.15,2013-02-06 14:06:00,
2013-02-06 09:12:00,65.1,57.0,30.12,ESE,119,1.0,2.0,75,0.00,,,0.00,Wunderground v.1.15,2013-02-06 14:12:00,
2013-02-06 09:17:00,65.3,57.5,30.12,ENE,68,1.0,2.0,76,0.00,,,0.00,Wunderground v.1.15,2013-02-06 14:17:00,
2013-02-06 09:22:00,65.4,57.3,30.13,SE,141,1.0,3.0,75,0.00,,,0.00,Wunderground v.1.15,2013-02-06 14:22:00,
2013-02-06 09:27:00,66.1,57.9,30.13,SSE,148,1.0,3.0,75,0.00,,,0.00,Wunderground v.1.15,2013-02-06 14:27:00,
2013-02-06 09:32:00,66.6,57.3,30.13,East,91,1.0,2.0,72,0.00,,,0.00,Wunderground v.1.15,2013-02-06 14:32:00,
2013-02-06 09:37:00,66.6,57.3,30.13,East,88,1.0,4.0,72,0.00,,,0.00,Wunderground v.1.15,2013-02-06 14:37:00,
2013-02-06 09:42:00,66.9,57.6,30.13,ENE,72,1.0,2.0,72,0.00,,,0.00,Wunderground v.1.15,2013-02-06 14:42:00,
2013-02-06 09:47:00,67.3,58.0,30.13,SSE,156,1.0,2.0,72,0.00,,,0.00,Wunderground v.1.15,2013-02-06 14:47:00,
2013-02-06 09:52:00,68.0,58.2,30.13,NNE,16,0.0,1.0,71,0.00,,,0.00,Wunderground v.1.15,2013-02-06 14:52:00,
2013-02-06 09:58:00,68.2,57.6,30.13,SE,130,1.0,3.0,69,0.00,,,0.00,Wunderground v.1.15,2013-02-06 14:58:00,
2013-02-06 10:03:00,68.2,57.2,30.13,SSE,153,1.0,2.0,68,0.00,,,0.00,Wunderground v.1.15,2013-02-06 15:03:00,
2013-02-06 10:08:00,68.0,57.0,30.13,SSE,149,1.0,5.0,68,0.00,,,0.00,Wunderground v.1.15,2013-02-06 15:08:00,
2013-02-06 10:13:00,68.1,56.7,30.13,SE,131,2.0,4.0,67,0.00,,,0.00,Wunderground v.1.15,2013-02-06 15:13:00,
2013-02-06 10:18:00,68.0,57.0,30.13,ESE,105,2.0,4.0,68,0.00,,,0.00,Wunderground v.1.15,2013-02-06 15:18:00,
2013-02-06 10:23:00,68.1,57.5,30.13,ESE,120,1.0,2.0,69,0.00,,,0.00,Wunderground v.1.15,2013-02-06 15:23:00,
2013-02-06 10:28:00,68.3,57.3,30.13,East,101,1.0,2.0,68,0.00,,,0.00,Wunderground v.1.15,2013-02-06 15:28:00,
2013-02-06 10:33:00,68.5,57.1,30.13,ESE,120,1.0,2.0,67,0.00,,,0.00,Wunderground v.1.15,2013-02-06 15:33:00,
2013-02-06 10:38:00,68.8,57.0,30.13,SE,134,1.0,3.0,66,0.00,,,0.00,Wunderground v.1.15,2013-02-06 15:38:00,
2013-02-06 10:43:00,68.6,56.8,30.13,SSE,158,2.0,4.0,66,0.00,,,0.00,Wunderground v.1.15,2013-02-06 15:43:00,
2013-02-06 10:49:00,68.8,57.0,30.13,SSE,167,2.0,4.0,66,0.00,,,0.00,Wunderground v.1.15,2013-02-06 15:49:00,
2013-02-06 10:54:00,69.1,57.3,30.13,SE,143,2.0,3.0,66,0.00,,,0.00,Wunderground v.1.15,2013-02-06 15:54:00,
2013-02-06 10:59:00,69.8,57.9,30.13,SE,136,1.0,3.0,66,0.00,,,0.00,Wunderground v.1.15,2013-02-06 15:59:00,
2013-02-06 11:04:00,70.8,58.4,30.13,East,82,1.0,2.0,65,0.00,,,0.00,Wunderground v.1.15,2013-02-06 16:04:00,
2013-02-06 11:09:00,71.6,58.3,30.13,NNE,30,1.0,2.0,63,0.00,,,0.00,Wunderground v.1.15,2013-02-06 16:09:00,
2013-02-06 11:14:00,72.0,58.3,30.13,SE,126,1.0,2.0,62,0.00,,,0.00,Wunderground v.1.15,2013-02-06 16:14:00,
2013-02-06 11:19:00,72.7,58.5,30.13,NE,40,1.0,2.0,61,0.00,,,0.00,Wunderground v.1.15,2013-02-06 16:19:00,
2013-02-06 11:24:00,73.1,58.8,30.13,SE,142,1.0,2.0,61,0.00,,,0.00,Wunderground v.1.15,2013-02-06 16:24:00,
2013-02-06 11:29:00,73.6,58.9,30.13,ESE,114,1.0,2.0,60,0.00,,,0.00,Wunderground v.1.15,2013-02-06 16:29:00,
2013-02-06 11:34:00,73.9,59.1,30.13,SSE,162,2.0,2.0,60,0.00,,,0.00,Wunderground v.1.15,2013-02-06 16:34:00,
2013-02-06 11:40:00,74.4,58.7,30.13,South,177,1.0,1.0,58,0.00,,,0.00,Wunderground v.1.15,2013-02-06 16:40:00,
2013-02-06 11:45:00,74.4,58.7,30.12,East,79,1.0,1.0,58,0.00,,,0.00,Wunderground v.1.15,2013-02-06 16:45:00,
2013-02-06 11:50:00,74.3,58.6,30.12,SE,125,1.0,2.0,58,0.00,,,0.00,Wunderground v.1.15,2013-02-06 16:50:00,
2013-02-06 11:55:00,74.4,58.7,30.12,ESE,119,1.0,2.0,58,0.00,,,0.00,Wunderground v.1.15,2013-02-06 16:55:00,
2013-02-06 12:00:00,74.7,58.9,30.12,SSE,163,1.0,1.0,58,0.00,,,0.00,Wunderground v.1.15,2013-02-06 17:00:00,
2013-02-06 12:06:00,75.3,60.0,30.12,SSE,150,1.0,1.0,59,0.00,,,0.00,Wunderground v.1.15,2013-02-06 17:06:00,
2013-02-06 12:11:00,75.7,59.4,30.12,SW,235,1.0,2.0,57,0.00,,,0.00,Wunderground v.1.15,2013-02-06 17:11:00,
2013-02-06 12:16:00,76.0,59.7,30.12,WSW,248,1.0,2.0,57,0.00,,,0.00,Wunderground v.1.15,2013-02-06 17:16:00,
2013-02-06 12:21:00,76.4,59.5,30.12,SE,141,1.0,2.0,56,0.00,,,0.00,Wunderground v.1.15,2013-02-06 17:21:00,
2013-02-06 12:26:00,76.5,59.6,30.12,SE,130,1.0,2.0,56,0.00,,,0.00,Wunderground v.1.15,2013-02-06 17:26:00,
2013-02-06 12:31:00,76.6,59.7,30.12,ESE,107,1.0,1.0,56,0.00,,,0.00,Wunderground v.1.15,2013-02-06 17:31:00,
2013-02-06 12:36:00,76.7,59.8,30.11,SE,131,2.0,3.0,56,0.00,,,0.00,Wunderground v.1.15,2013-02-06 17:36:00,
2013-02-06 12:41:00,77.3,59.9,30.11,SSE,161,1.0,2.0,55,0.00,,,0.00,Wunderground v.1.15,2013-02-06 17:41:00,
2013-02-06 12:46:00,77.8,60.3,30.10,SE,124,1.0,2.0,55,0.00,,,0.00,Wunderground v.1.15,2013-02-06 17:46:00,
2013-02-06 12:51:00,78.4,60.4,30.10,SSE,163,1.0,2.0,54,0.00,,,0.00,Wunderground v.1.15,2013-02-06 17:51:00,
2013-02-06 12:57:00,78.1,60.1,30.09,SE,142,2.0,3.0,54,0.00,,,0.00,Wunderground v.1.15,2013-02-06 17:57:00,
2013-02-06 13:02:00,77.7,59.7,30.09,SE,130,2.0,3.0,54,0.00,,,0.00,Wunderground v.1.15,2013-02-06 18:02:00,
2013-02-06 13:07:00,77.4,60.0,30.09,SSE,155,2.0,3.0,55,0.00,,,0.00,Wunderground v.1.15,2013-02-06 18:07:00,
2013-02-06 13:12:00,77.3,59.4,30.09,SE,143,2.0,5.0,54,0.00,,,0.00,Wunderground v.1.15,2013-02-06 18:12:00,
2013-02-06 13:18:00,77.5,60.6,30.09,SW,229,2.0,5.0,56,0.00,,,0.00,Wunderground v.1.15,2013-02-06 18:18:00,
2013-02-06 13:23:00,78.3,59.8,30.08,SE,134,1.0,3.0,53,0.00,,,0.00,Wunderground v.1.15,2013-02-06 18:23:00,
2013-02-06 13:28:00,78.5,59.9,30.08,SE,138,2.0,3.0,53,0.00,,,0.00,Wunderground v.1.15,2013-02-06 18:28:00,
2013-02-06 13:33:00,78.8,60.2,30.08,WSW,246,2.0,2.0,53,0.00,,,0.00,Wunderground v.1.15,2013-02-06 18:33:00,
2013-02-06 13:38:00,79.4,60.2,30.08,South,184,2.0,7.0,52,0.00,,,0.00,Wunderground v.1.15,2013-02-06 18:38:00,
2013-02-06 13:43:00,79.0,59.9,30.08,South,183,2.0,2.0,52,0.00,,,0.00,Wunderground v.1.15,2013-02-06 18:43:00,
2013-02-06 13:48:00,79.2,60.1,30.08,South,175,2.0,3.0,52,0.00,,,0.00,Wunderground v.1.15,2013-02-06 18:48:00,
2013-02-06 13:53:00,78.7,59.0,30.08,WSW,245,2.0,2.0,51,0.00,,,0.00,Wunderground v.1.15,2013-02-06 18:53:00,
2013-02-06 13:58:00,78.5,59.9,30.08,SW,229,2.0,2.0,53,0.00,,,0.00,Wunderground v.1.15,2013-02-06 18:58:00,
2013-02-06 14:04:00,77.8,59.8,30.08,SW,225,1.0,2.0,54,0.00,,,0.00,Wunderground v.1.15,2013-02-06 19:04:00,
2013-02-06 14:09:00,77.5,59.5,30.08,SSW,211,1.0,2.0,54,0.00,,,0.00,Wunderground v.1.15,2013-02-06 19:09:00,
2013-02-06 14:14:00,77.2,59.3,30.07,SW,219,2.0,5.0,54,0.00,,,0.00,Wunderground v.1.15,2013-02-06 19:14:00,
2013-02-06 14:19:00,76.8,59.4,30.07,South,184,2.0,5.0,55,0.00,,,0.00,Wunderground v.1.15,2013-02-06 19:19:00,
2013-02-06 14:24:00,76.9,60.0,30.07,SSE,149,2.0,3.0,56,0.00,,,0.00,Wunderground v.1.15,2013-02-06 19:24:00,
2013-02-06 14:29:00,77.6,59.6,30.07,SSW,210,1.0,3.0,54,0.00,,,0.00,Wunderground v.1.15,2013-02-06 19:29:00,
2013-02-06 14:34:00,77.7,60.2,30.07,SSW,197,1.0,3.0,55,0.00,,,0.00,Wunderground v.1.15,2013-02-06 19:34:00,
2013-02-06 14:39:00,77.4,60.0,30.07,South,185,1.0,3.0,55,0.00,,,0.00,Wunderground v.1.15,2013-02-06 19:39:00,
2013-02-06 14:44:00,77.4,59.5,30.07,South,186,1.0,2.0,54,0.00,,,0.00,Wunderground v.1.15,2013-02-06 19:44:00,
2013-02-06 14:49:00,77.8,59.8,30.07,SW,235,1.0,2.0,54,0.00,,,0.00,Wunderground v.1.15,2013-02-06 19:49:00,
2013-02-06 14:54:00,77.7,59.2,30.07,SSW,207,2.0,3.0,53,0.00,,,0.00,Wunderground v.1.15,2013-02-06 19:54:00,
2013-02-06 14:59:00,77.6,59.6,30.07,WSW,250,2.0,3.0,54,0.00,,,0.00,Wunderground v.1.15,2013-02-06 19:59:00,
2013-02-06 15:05:00,77.5,59.5,30.07,SSW,205,2.0,2.0,54,0.00,,,0.00,Wunderground v.1.15,2013-02-06 20:05:00,
2013-02-06 15:10:00,77.7,60.2,30.07,SW,218,2.0,2.0,55,0.00,,,0.00,Wunderground v.1.15,2013-02-06 20:10:00,
2013-02-06 15:16:00,78.1,60.1,30.07,SSE,153,1.0,2.0,54,0.00,,,0.00,Wunderground v.1.15,2013-02-06 20:16:00,
2013-02-06 15:21:00,78.5,60.5,30.06,SSE,153,1.0,2.0,54,0.00,,,0.00,Wunderground v.1.15,2013-02-06 20:21:00,
2013-02-06 15:26:00,78.5,59.9,30.06,SE,134,2.0,4.0,53,0.00,,,0.00,Wunderground v.1.15,2013-02-06 20:26:00,
2013-02-06 15:32:00,78.0,60.0,30.06,WSW,237,2.0,3.0,54,0.00,,,0.00,Wunderground v.1.15,2013-02-06 20:32:00,
2013-02-06 15:37:00,77.4,60.0,30.06,West,277,2.0,3.0,55,0.00,,,0.00,Wunderground v.1.15,2013-02-06 20:37:00,
2013-02-06 15:42:00,77.4,60.0,30.06,WSW,238,2.0,2.0,55,0.00,,,0.00,Wunderground v.1.15,2013-02-06 20:42:00,
2013-02-06 15:47:00,77.5,60.6,30.06,SSE,166,1.0,3.0,56,0.00,,,0.00,Wunderground v.1.15,2013-02-06 20:47:00,
2013-02-06 15:52:00,77.2,60.8,30.06,South,172,1.0,3.0,57,0.00,,,0.00,Wunderground v.1.15,2013-02-06 20:52:00,
2013-02-06 15:58:00,77.2,60.8,30.06,WSW,247,1.0,3.0,57,0.00,,,0.00,Wunderground v.1.15,2013-02-06 20:58:00,
2013-02-06 16:03:00,76.9,60.5,30.06,North,9,0.0,2.0,57,0.00,,,0.00,Wunderground v.1.15,2013-02-06 21:03:00,
2013-02-06 16:09:00,76.9,60.5,30.06,SW,236,0.0,2.0,57,0.00,,,0.00,Wunderground v.1.15,2013-02-06 21:09:00,
2013-02-06 16:14:00,76.6,60.7,30.06,WSW,257,1.0,2.0,58,0.00,,,0.00,Wunderground v.1.15,2013-02-06 21:14:00,
2013-02-06 16:19:00,76.1,60.7,30.06,WSW,242,1.0,2.0,59,0.00,,,0.00,Wunderground v.1.15,2013-02-06 21:19:00,
2013-02-06 16:24:00,76.0,60.6,30.06,WSW,253,1.0,1.0,59,0.00,,,0.00,Wunderground v.1.15,2013-02-06 21:24:00,
2013-02-06 16:29:00,75.9,60.5,30.05,SSW,192,1.0,1.0,59,0.00,,,0.00,Wunderground v.1.15,2013-02-06 21:29:00,
2013-02-06 16:34:00,75.9,61.0,30.05,WSW,249,0.0,1.0,60,0.00,,,0.00,Wunderground v.1.15,2013-02-06 21:34:00,
2013-02-06 16:40:00,75.8,60.9,30.05,WNW,294,0.0,0.0,60,0.00,,,0.00,Wunderground v.1.15,2013-02-06 21:40:00,
2013-02-06 16:45:00,75.7,59.9,30.05,West,274,1.0,1.0,58,0.00,,,0.00,Wunderground v.1.15,2013-02-06 21:45:00,
2013-02-06 16:50:00,75.5,60.2,30.05,SSW,204,1.0,1.0,59,0.00,,,0.00,Wunderground v.1.15,2013-02-06 21:50:00,
2013-02-06 16:55:00,75.3,60.5,30.05,SW,226,1.0,2.0,60,0.00,,,0.00,Wunderground v.1.15,2013-02-06 21:55:00,
2013-02-06 17:00:00,75.2,59.4,30.05,South,183,1.0,1.0,58,0.00,,,0.00,Wunderground v.1.15,2013-02-06 22:00:00,
2013-02-06 17:06:00,75.0,59.7,30.05,SW,224,1.0,1.0,59,0.00,,,0.00,Wunderground v.1.15,2013-02-06 22:06:00,
2013-02-06 17:11:00,74.9,60.1,30.06,SW,224,0.0,2.0,60,0.00,,,0.00,Wunderground v.1.15,2013-02-06 22:11:00,
2013-02-06 17:17:00,74.6,59.8,30.06,WNW,287,1.0,2.0,60,0.00,,,0.00,Wunderground v.1.15,2013-02-06 22:17:00,
2013-02-06 17:22:00,74.5,60.2,30.06,WSW,246,0.0,1.0,61,0.00,,,0.00,Wunderground v.1.15,2013-02-06 22:22:00,
2013-02-06 17:27:00,74.3,60.0,30.06,WSW,246,0.0,1.0,61,0.00,,,0.00,Wunderground v.1.15,2013-02-06 22:27:00,
2013-02-06 17:32:00,74.2,60.3,30.06,WSW,250,0.0,0.0,62,0.00,,,0.00,Wunderground v.1.15,2013-02-06 22:32:00,
2013-02-06 17:37:00,74.1,60.2,30.06,SW,222,0.0,1.0,62,0.00,,,0.00,Wunderground v.1.15,2013-02-06 22:37:00,
2013-02-06 17:42:00,73.8,60.0,30.06,SSE,155,0.0,0.0,62,0.00,,,0.00,Wunderground v.1.15,2013-02-06 22:42:00,
2013-02-06 17:47:00,73.5,60.6,30.06,SSE,156,0.0,0.0,64,0.00,,,0.00,Wunderground v.1.15,2013-02-06 22:47:00,
2013-02-06 17:52:00,73.3,60.8,30.06,SSE,156,0.0,0.0,65,0.00,,,0.00,Wunderground v.1.15,2013-02-06 22:52:00,
2013-02-06 17:57:00,73.0,60.5,30.06,SSE,156,0.0,0.0,65,0.00,,,0.00,Wunderground v.1.15,2013-02-06 22:57:00,
2013-02-06 18:03:00,72.6,60.6,30.06,SSE,156,0.0,0.0,66,0.00,,,0.00,Wunderground v.1.15,2013-02-06 23:03:00,
2013-02-06 18:08:00,72.2,60.6,30.06,SSE,156,0.0,0.0,67,0.00,,,0.00,Wunderground v.1.15,2013-02-06 23:08:00,
2013-02-06 18:13:00,71.9,60.8,30.06,SSE,156,0.0,0.0,68,0.00,,,0.00,Wunderground v.1.15,2013-02-06 23:13:00,
2013-02-06 18:18:00,71.6,60.9,30.06,SSE,156,0.0,0.0,69,0.00,,,0.00,Wunderground v.1.15,2013-02-06 23:18:00,
2013-02-06 18:24:00,71.1,60.8,30.06,SSE,156,0.0,0.0,70,0.00,,,0.00,Wunderground v.1.15,2013-02-06 23:24:00,
2013-02-06 18:29:00,70.8,60.9,30.06,SSE,156,0.0,0.0,71,0.00,,,0.00,Wunderground v.1.15,2013-02-06 23:29:00,
2013-02-06 18:34:00,70.5,61.0,30.06,SSE,156,0.0,0.0,72,0.00,,,0.00,Wunderground v.1.15,2013-02-06 23:34:00,
2013-02-06 18:39:00,70.1,61.0,30.06,SSE,156,0.0,0.0,73,0.00,,,0.00,Wunderground v.1.15,2013-02-06 23:39:00,
2013-02-06 18:44:00,69.8,61.1,30.06,SSE,156,0.0,0.0,74,0.00,,,0.00,Wunderground v.1.15,2013-02-06 23:44:00,
2013-02-06 18:49:00,69.5,61.2,30.07,SSE,156,0.0,0.0,75,0.00,,,0.00,Wunderground v.1.15,2013-02-06 23:49:00,
2013-02-06 18:54:00,69.1,61.2,30.07,SSE,156,0.0,0.0,76,0.00,,,0.00,Wunderground v.1.15,2013-02-06 23:54:00,
2013-02-06 18:59:00,68.8,61.7,30.07,SSE,156,0.0,0.0,78,0.00,,,0.00,Wunderground v.1.15,2013-02-06 23:59:00,
2013-02-06 19:05:00,68.4,62.0,30.07,SSE,156,0.0,0.0,80,0.00,,,0.00,Wunderground v.1.15,2013-02-07 00:05:00,
2013-02-06 19:10:00,68.2,62.5,30.07,SSE,156,0.0,0.0,82,0.00,,,0.00,Wunderground v.1.15,2013-02-07 00:10:00,
2013-02-06 19:15:00,68.0,62.3,30.07,SSE,156,0.0,0.0,82,0.00,,,0.00,Wunderground v.1.15,2013-02-07 00:15:00,
2013-02-06 19:20:00,67.9,62.5,30.07,SSE,156,0.0,0.0,83,0.00,,,0.00,Wunderground v.1.15,2013-02-07 00:20:00,
2013-02-06 19:25:00,68.0,62.6,30.08,SSE,156,0.0,0.0,83,0.00,,,0.00,Wunderground v.1.15,2013-02-07 00:25:00,
2013-02-06 19:30:00,68.0,62.6,30.08,SSE,156,0.0,0.0,83,0.00,,,0.00,Wunderground v.1.15,2013-02-07 00:30:00,
2013-02-06 19:35:00,68.0,62.6,30.08,SSE,157,0.0,0.0,83,0.00,,,0.00,Wunderground v.1.15,2013-02-07 00:35:00,
2013-02-06 19:41:00,68.1,62.7,30.08,SSE,156,0.0,0.0,83,0.00,,,0.00,Wunderground v.1.15,2013-02-07 00:41:00,
2013-02-06 19:46:00,68.2,62.8,30.08,SSE,156,0.0,0.0,83,0.00,,,0.00,Wunderground v.1.15,2013-02-07 00:46:00,
2013-02-06 19:52:00,68.3,62.9,30.08,SSE,156,0.0,0.0,83,0.00,,,0.00,Wunderground v.1.15,2013-02-07 00:52:00,
2013-02-06 19:57:00,68.3,62.9,30.08,SSE,156,0.0,0.0,83,0.00,,,0.00,Wunderground v.1.15,2013-02-07 00:57:00,
2013-02-06 20:03:00,68.4,63.0,30.08,SSE,157,0.0,0.0,83,0.00,,,0.00,Wunderground v.1.15,2013-02-07 01:03:00,
2013-02-06 20:08:00,68.4,63.0,30.08,SSE,156,0.0,0.0,83,0.00,,,0.00,Wunderground v.1.15,2013-02-07 01:08:00,
2013-02-06 20:13:00,68.5,63.1,30.08,SSE,156,0.0,0.0,83,0.00,,,0.00,Wunderground v.1.15,2013-02-07 01:13:00,
2013-02-06 20:18:00,68.5,63.1,30.08,SSE,156,0.0,0.0,83,0.00,,,0.00,Wunderground v.1.15,2013-02-07 01:18:00,
2013-02-06 20:23:00,68.6,62.9,30.08,SSE,156,0.0,0.0,82,0.00,,,0.00,Wunderground v.1.15,2013-02-07 01:23:00,
2013-02-06 20:29:00,68.6,63.2,30.08,SSE,156,0.0,0.0,83,0.00,,,0.00,Wunderground v.1.15,2013-02-07 01:29:00,
2013-02-06 20:34:00,68.6,63.2,30.08,SSE,156,0.0,0.0,83,0.00,,,0.00,Wunderground v.1.15,2013-02-07 01:34:00,
2013-02-06 20:39:00,68.7,63.3,30.08,SSE,156,0.0,0.0,83,0.00,,,0.00,Wunderground v.1.15,2013-02-07 01:39:00,
2013-02-06 20:44:00,68.8,63.4,30.08,SSE,156,0.0,0.0,83,0.00,,,0.00,Wunderground v.1.15,2013-02-07 01:44:00,
2013-02-06 20:49:00,68.8,63.4,30.09,SSE,156,0.0,0.0,83,0.00,,,0.00,Wunderground v.1.15,2013-02-07 01:49:00,
2013-02-06 20:54:00,68.9,63.2,30.09,ENE,74,0.0,1.0,82,0.00,,,0.00,Wunderground v.1.15,2013-02-07 01:54:00,
2013-02-06 20:59:00,69.0,63.3,30.09,NNE,15,1.0,2.0,82,0.00,,,0.00,Wunderground v.1.15,2013-02-07 01:59:00,
2013-02-06 21:05:00,69.0,63.3,30.09,NNW,330,1.0,2.0,82,0.00,,,0.00,Wunderground v.1.15,2013-02-07 02:05:00,
2013-02-06 21:10:00,69.0,63.3,30.09,North,353,1.0,1.0,82,0.00,,,0.00,Wunderground v.1.15,2013-02-07 02:10:00,
2013-02-06 21:16:00,68.9,63.2,30.09,NNW,344,1.0,2.0,82,0.00,,,0.00,Wunderground v.1.15,2013-02-07 02:16:00,
2013-02-06 21:21:00,68.9,63.2,30.09,NNE,26,1.0,1.0,82,0.00,,,0.00,Wunderground v.1.15,2013-02-07 02:21:00,
2013-02-06 21:26:00,68.8,63.1,30.09,NNW,340,0.0,1.0,82,0.00,,,0.00,Wunderground v.1.15,2013-02-07 02:26:00,
2013-02-06 21:31:00,68.8,63.4,30.09,NNW,340,1.0,1.0,83,0.00,,,0.00,Wunderground v.1.15,2013-02-07 02:31:00,
2013-02-06 21:36:00,68.6,63.2,30.09,NW,325,0.0,1.0,83,0.00,,,0.00,Wunderground v.1.15,2013-02-07 02:36:00,
2013-02-06 21:41:00,68.5,63.1,30.09,NW,323,0.0,0.0,83,0.00,,,0.00,Wunderground v.1.15,2013-02-07 02:41:00,
2013-02-06 21:47:00,68.4,63.4,30.09,NW,323,0.0,1.0,84,0.00,,,0.00,Wunderground v.1.15,2013-02-07 02:47:00,
2013-02-06 21:52:00,68.3,63.3,30.09,WNW,302,0.0,3.0,84,0.00,,,0.00,Wunderground v.1.15,2013-02-07 02:52:00,
2013-02-06 21:57:00,68.3,63.3,30.09,NNW,333,0.0,3.0,84,0.00,,,0.00,Wunderground v.1.15,2013-02-07 02:57:00,
2013-02-06 22:03:00,68.2,63.2,30.09,NNW,333,0.0,0.0,84,0.00,,,0.00,Wunderground v.1.15,2013-02-07 03:03:00,
2013-02-06 22:09:00,68.1,63.1,30.09,NNW,333,0.0,0.0,84,0.00,,,0.00,Wunderground v.1.15,2013-02-07 03:09:00,
2013-02-06 22:14:00,68.0,63.0,30.09,NNW,333,0.0,0.0,84,0.00,,,0.00,Wunderground v.1.15,2013-02-07 03:14:00,
2013-02-06 22:19:00,67.9,62.9,30.09,NNW,333,0.0,1.0,84,0.00,,,0.00,Wunderground v.1.15,2013-02-07 03:19:00,
2013-02-06 22:25:00,67.8,62.8,30.09,NNW,333,0.0,1.0,84,0.00,,,0.00,Wunderground v.1.15,2013-02-07 03:25:00,
2013-02-06 22:30:00,67.7,62.7,30.09,NNW,333,0.0,0.0,84,0.00,,,0.00,Wunderground v.1.15,2013-02-07 03:30:00,
2013-02-06 22:35:00,67.4,62.4,30.09,North,5,0.0,1.0,84,0.00,,,0.00,Wunderground v.1.15,2013-02-07 03:35:00,
2013-02-06 22:40:00,67.2,62.2,30.09,North,8,0.0,0.0,84,0.00,,,0.00,Wunderground v.1.15,2013-02-07 03:40:00,
2013-02-06 22:46:00,67.0,62.0,30.09,North,8,0.0,0.0,84,0.00,,,0.00,Wunderground v.1.15,2013-02-07 03:46:00,
2013-02-06 22:51:00,66.8,61.8,30.09,North,8,0.0,0.0,84,0.00,,,0.00,Wunderground v.1.15,2013-02-07 03:51:00,
2013-02-06 22:57:00,66.7,62.0,30.09,North,8,0.0,0.0,85,0.00,,,0.00,Wunderground v.1.15,2013-02-07 03:57:00,
2013-02-06 23:02:00,66.8,61.8,30.09,North,9,0.0,1.0,84,0.00,,,0.00,Wunderground v.1.15,2013-02-07 04:02:00,
2013-02-06 23:07:00,67.0,62.0,30.09,NE,47,0.0,2.0,84,0.00,,,0.00,Wunderground v.1.15,2013-02-07 04:07:00,
2013-02-06 23:13:00,67.1,61.8,30.09,NE,47,0.0,0.0,83,0.00,,,0.00,Wunderground v.1.15,2013-02-07 04:13:00,
2013-02-06 23:18:00,67.0,61.7,30.09,NE,56,0.0,0.0,83,0.00,,,0.00,Wunderground v.1.15,2013-02-07 04:18:00,
2013-02-06 23:23:00,66.9,61.6,30.08,NNE,13,0.0,1.0,83,0.00,,,0.00,Wunderground v.1.15,2013-02-07 04:23:00,
2013-02-06 23:28:00,66.8,61.1,30.08,NE,44,0.0,1.0,82,0.00,,,0.00,Wunderground v.1.15,2013-02-07 04:28:00,
2013-02-06 23:34:00,66.6,61.3,30.08,NE,44,0.0,0.0,83,0.00,,,0.00,Wunderground v.1.15,2013-02-07 04:34:00,
2013-02-06 23:39:00,66.3,61.0,30.08,NE,44,0.0,0.0,83,0.00,,,0.00,Wunderground v.1.15,2013-02-07 04:39:00,
2013-02-06 23:44:00,66.1,60.8,30.08,NE,46,0.0,0.0,83,0.00,,,0.00,Wunderground v.1.15,2013-02-07 04:44:00,
2013-02-06 23:49:00,65.9,60.9,30.08,NE,46,0.0,0.0,84,0.00,,,0.00,Wunderground v.1.15,2013-02-07 04:49:00,
2013-02-06 23:54:00,65.6,60.6,30.08,NE,46,0.0,0.0,84,0.00,,,0.00,Wunderground v.1.15,2013-02-07 04:54:00,